Regional Weather Roundup
Issued by NWS

Home | Current Version | Previous Version | Graphics & Text | Print | Product List | Glossary On
Versions: 1 2 3 4 5 6 7 8 9 10 11 12 13 14 15 16 17 18 19 20 21 22 23 24 25 26 27 28 29 30 31 32 33 34 35 36 37 38 39 40 41 42 43 44 45 46 47 48 49 50
000
ASUS43 KIND 060709
RWRIN

WEATHER ROUNDUP FOR INDIANA
NATIONAL WEATHER SERVICE INDIANAPOLIS IN
200 AM EST FRI MAR 06 2015

NOTE: "FAIR" INDICATES FEW OR NO CLOUDS BELOW 12,000 FEET WITH NO
SIGNIFICANT WEATHER AND/OR OBSTRUCTIONS TO VISIBILITY.

* - STATION DOES NOT REPORT WEATHER SUCH AS PRECIPITATION OR FOG.

+ - STATION NOT QUALITY CONTROLLED BY THE NATIONAL WEATHER SERVICE.
    USE DATA WITH CAUTION...ESPECIALLY DEWPOINT AND RELATIVE
    HUMIDITY OBSERVATIONS.

INZ001>003-010>013-019-020-060800-
NORTHWEST INDIANA

CITY           SKY/WX    TMP DP  RH WIND       PRES   REMARKS
GARY /AIRPORT/ CLEAR      8  -2  62 CALM      30.54S
KNOX *+          N/A      3 -13  47 SW5       30.53S WCI  -6
LA PORTE +     MOCLDY     5  -2  73 SW3       30.52S
MICHIGAN CITY+ PTCLDY     5  -4  66 S3        30.53S
MONTICELLO +   PTCLDY     0  -5  80 CALM      30.54F
RENSSELAER +   PTCLDY     0  -2  92 CALM      30.54S
VALPARAISO     PTCLDY     3  -4  72 SW3       30.53S

$$

LMZ046-743>745-060800-
SOUTHERN LAKE MICHIGAN

STATION/POSITION TIME  TEMP WIND        PRES
                       AIR  DIR/SP/G
                 (UTC) (F)  (DEG/KT/KT) (MB)
MICHIGAN CITY    0700    7  180/  9/ 10   N/A

$$

INZ004-005-014>016-021>024-060800-
NORTH CENTRAL INDIANA

CITY           SKY/WX    TMP DP  RH WIND       PRES   REMARKS
GOSHEN         PTCLDY     2  -5  72 SW3       30.51S
LOGANSPORT +   FAIR       0  -6  78 SW3       30.55F
PERU/GRISSOM   FAIR       1  -5  76 W6        30.52S WCI -11
ROCHESTER +    MOCLDY     9   1  72 W5        30.54R WCI   0
SOUTH BEND     PTCLDY     4  -3  73 SW5       30.52S WCI  -5
WARSAW +       PTCLDY     7   1  78 CALM      30.52R

$$

INZ006>009-017-018-025>027-060800-
NORTHEAST INDIANA

CITY           SKY/WX    TMP DP  RH WIND       PRES   REMARKS
ANGOLA *+      CLEAR     -2  -6  84 CALM      30.48R
AUBURN +       MOCLDY     3   0  85 CALM      30.52R
FORT WAYNE     MOCLDY     3  -2  79 W7        30.53S WCI  -9
HUNTINGTON +   PTCLDY     5  -4  66 W3        30.53R

$$

INZ028-029-035-036-043>045-051>053-060800-
WEST CENTRAL INDIANA

CITY           SKY/WX    TMP DP  RH WIND       PRES   REMARKS
CRAWFORDSVL +  PTCLDY    -5 -11  74 CALM      30.55S
GREENCASTLE +  PTCLDY     3  -2  78 CALM      30.55F
LAFAYETTE      PTCLDY     0  -4  83 CALM      30.56F
TERRE HAUTE    PTCLDY     1  -2  87 CALM      30.59S

$$

INZ030>032-037>040-046>048-054>057-064-065-060800-
CENTRAL INDIANA

CITY           SKY/WX    TMP DP  RH WIND       PRES   REMARKS
CP ATTERBURY + PTCLDY     7   3  85 CALM      30.58R
FISHERS *+     MOCLDY     3   1  92 CALM      30.55R
FRANKFORT +    PTCLDY    -7 -10  87 CALM      30.55F
GREENWOOD *+   PTCLDY     7   0  72 CALM      30.56R
INDIANAPOLIS   PTCLDY     7  -1  70 CALM      30.54S
-EAGLE CREEK   PTCLDY     6  -1  73 CALM      30.55R
KOKOMO *+        N/A    N/A N/A N/A MISG        N/A
MARION +       PTCLDY     0  -5  76 W3        30.54R
MT COMFORT *+  PTCLDY     0  -8  71 CALM      30.56R
SHELBYVILLE    PTCLDY     6   0  76 W3        30.55S
ZIONSVILLE +   MOCLDY     3  -3  75 CALM      30.54F

$$

INZ033-034-041-042-049-050-058-059-060800-
EAST CENTRAL INDIANA

CITY           SKY/WX    TMP DP  RH WIND       PRES   REMARKS
MUNCIE         PTCLDY     6   0  76 W3        30.53S

$$

INZ060-061-067>069-081>083-085>088-060800-
SOUTHWEST INDIANA

CITY           SKY/WX    TMP DP  RH WIND       PRES   REMARKS
EVANSVILLE     PTCLDY     6   1  80 CALM      30.61S
HUNTINGBURG *+ PTCLDY     7   1  78 N7        30.58F WCI  -5
WASHINGTON +   PTCLDY     5  -1  76 CALM      30.59S

$$

INZ062-063-066-070>080-084-089>092-060800-
SOUTH CENTRAL AND SOUTHEAST INDIANA

CITY           SKY/WX    TMP DP  RH WIND       PRES   REMARKS
BLOOMINGTON    PTCLDY     4   0  83 CALM      30.55S
NORTH VERNON + PTCLDY     9   7  92 CALM      30.57R
SEYMOUR +      CLEAR      9   3  78 NW5       30.58S WCI   0

$$



USA.gov is the U.S. government's official web portal to all federal, state and local government web resources and services.